カタログに戻る

NAVSTAR 85

USA 581

運用中ナビゲーションHEO
NORAD 67588·PAYLOAD·🇺🇸 United States

打ち上げ Jan 28, 2026 から Cape Canaveral Space Force Station

Loading…

次のパス (今後24時間)

TLE

最新Source: CelesTrak SupGP

元期: Sep 14, 2026, 00:00 UTC

1 67588C 26017A   26257.00000000  .00000000  00000+0  00000+0 0  2577
2 67588  55.1509  85.1912 0020808 263.2658 138.7099  2.00568984    17

AllMySatでNAVSTAR 85をリアルタイム追跡

Download on the App Store